Sterling Muni, Sterling, CO, CO

11:20 PM MST on November 22, 2017 (GMT -0700)
Sterling Municipal

Weather History for KSTK - March, 2014

Change the Weather History Date:

Thursday, March 13, 2014

  Actual Average Record
Temperature  
Mean Temperature 44 °F -  
Max Temperature 66 °F 53 °F 69 °F (2016)
Min Temperature 21 °F 23 °F 21 °F (2014)
Degree Days  
Heating Degree Days 22    
Moisture  
Dew Point 24 °F    
Average Humidity 57    
Maximum Humidity 93    
Minimum Humidity 14    
Precipitation  
Precipitation 0.00 in - - ()
Sea Level Pressure  
Sea Level Pressure 29.93 in    
Wind  
Wind Speed 6 mph (WSW)    
Max Wind Speed 20 mph    
Max Gust Speed 25 mph    
Visibility 10 miles    
Events      
Averages and records for this station are not official NWS values.
T = Trace of Precipitation, MM = Missing Value Source: NWS Daily Summary

Daily Weather History Graph

Daily Weather History Graph

Search for Another Location

Airport or City:

Trip Planner

Search our weather history database for the weather conditions in past years. The results will help you decide how hot, cold, wet, or windy it might be!

Date:

Astronomy

Mar. 13, 2014 Rise Set
Actual Time 7:07 AM MDT 6:57 PM MDT
Civil Twilight 6:40 AM MDT 7:24 PM MDT
Nautical Twilight 6:08 AM MDT 7:56 PM MDT
Astronomical Twilight 5:36 AM MDT 8:28 PM MDT
Moon 4:25 PM MDT (3/13) 5:16 AM MDT (3/13)
Length of Visible Light 12h 44m
Length of Day
11h 49m
Waxing Gibbous, 92% of the Moon is Illuminated
Mar 13
Waxing Gibbous
Mar 16
Full
Mar 23
Last Quarter
Mar 30
New
Apr 7
First Quarter

Hourly Weather History & Observations

Time (MDT) Temp. Windchill Dew Point Humidity Pressure Visibility Wind Dir Wind Speed Gust Speed Precip Events Conditions
12:15 AM 30.2 °F 25.4 °F 26.6 °F 86% 30.13 in 10.0 mi South 4.6 mph - N/A   Clear
12:35 AM 30.2 °F 26.7 °F 26.6 °F 86% 30.13 in 10.0 mi SSW 3.5 mph - N/A   Clear
12:55 AM 30.2 °F 24.3 °F 26.6 °F 86% 30.13 in 10.0 mi SW 5.8 mph - N/A   Clear
1:15 AM 30.2 °F 26.7 °F 26.6 °F 86% 30.12 in 10.0 mi SW 3.5 mph - N/A   Clear
1:35 AM 28.4 °F 23.3 °F 26.6 °F 93% 30.12 in 10.0 mi SSW 4.6 mph - N/A   Clear
1:55 AM 28.4 °F 22.2 °F 24.8 °F 86% 30.11 in 10.0 mi SSW 5.8 mph - N/A   Clear
2:15 AM 28.4 °F 20.4 °F 26.6 °F 93% 30.11 in 10.0 mi SSW 8.1 mph - N/A   Clear
2:35 AM 28.4 °F 23.3 °F 24.8 °F 86% 30.09 in 10.0 mi SSW 4.6 mph - N/A   Clear
2:55 AM 28.4 °F 24.6 °F 24.8 °F 86% 30.09 in 10.0 mi SW 3.5 mph - N/A   Clear
3:15 AM 26.6 °F 22.6 °F 24.8 °F 93% 30.09 in 10.0 mi South 3.5 mph - N/A   Clear
3:35 AM 26.6 °F 20.0 °F 23.0 °F 86% 30.08 in 10.0 mi South 5.8 mph - N/A   Clear
3:55 AM 26.6 °F 20.0 °F 23.0 °F 86% 30.08 in 10.0 mi SSW 5.8 mph - N/A   Clear
4:15 AM 26.6 °F 20.0 °F 23.0 °F 86% 30.07 in 10.0 mi South 5.8 mph - N/A   Clear
4:35 AM 26.6 °F 22.6 °F 23.0 °F 86% 30.07 in 10.0 mi SSE 3.5 mph - N/A   Clear
4:55 AM 24.8 °F 20.5 °F 23.0 °F 93% 30.07 in 10.0 mi SSE 3.5 mph - N/A   Clear
5:15 AM 24.8 °F 17.9 °F 21.2 °F 86% 30.06 in 10.0 mi South 5.8 mph - N/A   Clear
5:35 AM 23.0 °F 15.8 °F 21.2 °F 93% 30.06 in 10.0 mi SSW 5.8 mph - N/A   Clear
5:55 AM 23.0 °F 17.0 °F 21.2 °F 93% 30.05 in 10.0 mi South 4.6 mph - N/A   Clear
6:15 AM 23.0 °F 15.8 °F 21.2 °F 93% 30.04 in 10.0 mi SSW 5.8 mph - N/A   Clear
6:35 AM 21.2 °F 16.4 °F 19.4 °F 93% 30.04 in 10.0 mi West 3.5 mph - N/A   Clear
6:55 AM 23.0 °F 15.8 °F 21.2 °F 93% 30.04 in 10.0 mi SSW 5.8 mph - N/A   Clear
7:15 AM 23.0 °F 18.4 °F 21.2 °F 93% 30.03 in 10.0 mi SW 3.5 mph - N/A   Clear
7:35 AM 24.8 °F 17.9 °F 21.2 °F 86% 30.03 in 10.0 mi SW 5.8 mph - N/A   Clear
7:55 AM 26.6 °F 20.0 °F 23.0 °F 86% 30.03 in 10.0 mi SSW 5.8 mph - N/A   Clear
8:15 AM 28.4 °F 23.3 °F 24.8 °F 86% 30.02 in 10.0 mi SSW 4.6 mph - N/A   Clear
8:35 AM 30.2 °F 24.3 °F 26.6 °F 86% 30.02 in 10.0 mi South 5.8 mph - N/A   Clear
8:55 AM 32.0 °F 25.6 °F 28.4 °F 87% 30.01 in 10.0 mi SSW 6.9 mph - N/A   Clear
9:15 AM 33.8 °F 27.7 °F 28.4 °F 81% 30.01 in 10.0 mi SSW 6.9 mph - N/A   Clear
9:35 AM 35.6 °F 29.2 °F 30.2 °F 81% 30.00 in 10.0 mi SSW 8.1 mph - N/A   Clear
9:55 AM 37.4 °F 32.1 °F 30.2 °F 75% 30.00 in 10.0 mi SSW 6.9 mph - N/A   Clear
10:15 AM 41.0 °F 38.0 °F 30.2 °F 65% 29.98 in 10.0 mi SW 4.6 mph - N/A   Clear
10:35 AM 42.8 °F 39.3 °F 32.0 °F 66% 29.97 in 10.0 mi SW 5.8 mph - N/A   Clear
10:55 AM 46.4 °F 43.5 °F 32.0 °F 57% 29.96 in 10.0 mi SW 5.8 mph - N/A   Clear
11:15 AM 50.0 °F - 32.0 °F 50% 29.95 in 10.0 mi SW 3.5 mph - N/A   Clear
11:35 AM 53.6 °F - 32.0 °F 44% 29.94 in 10.0 mi South 6.9 mph - N/A   Clear
11:55 AM 53.6 °F - 32.0 °F 44% 29.93 in 10.0 mi South 5.8 mph - N/A   Clear
12:15 PM 57.2 °F - 32.0 °F 38% 29.91 in 10.0 mi SSW 5.8 mph - N/A   Clear
12:35 PM 59.0 °F - 28.4 °F 31% 29.89 in 10.0 mi West 3.5 mph - N/A   Clear
12:55 PM 60.8 °F - 26.6 °F 27% 29.88 in 10.0 mi Calm Calm - N/A   Clear
1:15 PM 62.6 °F - 21.2 °F 20% 29.86 in 10.0 mi SW 4.6 mph - N/A   Clear
1:35 PM 62.6 °F - 21.2 °F 20% 29.84 in 10.0 mi SSW 4.6 mph - N/A   Clear
1:55 PM 62.6 °F - 19.4 °F 19% 29.83 in 10.0 mi NW 3.5 mph - N/A   Clear
2:15 PM 64.4 °F - 19.4 °F 18% 29.81 in 10.0 mi WNW 6.9 mph - N/A   Clear
2:35 PM 64.4 °F - 17.6 °F 16% 29.80 in 10.0 mi WNW 6.9 mph - N/A   Clear
2:55 PM 64.4 °F - 14.0 °F 14% 29.79 in 10.0 mi WNW 10.4 mph - N/A   Clear
3:15 PM 64.4 °F - 15.8 °F 15% 29.78 in 10.0 mi WNW 3.5 mph - N/A   Clear
3:35 PM 64.4 °F - 14.0 °F 14% 29.78 in 10.0 mi SW 5.8 mph - N/A   Clear
3:55 PM 66.2 °F - 17.6 °F 15% 29.77 in 10.0 mi West 9.2 mph - N/A   Clear
4:15 PM 64.4 °F - 15.8 °F 15% 29.76 in 10.0 mi West 3.5 mph - N/A   Clear
4:35 PM 64.4 °F - 14.0 °F 14% 29.76 in 10.0 mi West 12.7 mph - N/A   Clear
4:55 PM 64.4 °F - 14.0 °F 14% 29.76 in 10.0 mi West 8.1 mph - N/A   Clear
5:15 PM 64.4 °F - 15.8 °F 15% 29.76 in 10.0 mi WNW 13.8 mph - N/A   Clear
5:35 PM 62.6 °F - 17.6 °F 18% 29.76 in 10.0 mi West 9.2 mph - N/A   Clear
5:55 PM 62.6 °F - 21.2 °F 20% 29.76 in 10.0 mi WNW 9.2 mph - N/A   Clear
6:15 PM 60.8 °F - 23.0 °F 23% 29.77 in 10.0 mi West 8.1 mph - N/A   Clear
6:35 PM 59.0 °F - 24.8 °F 27% 29.77 in 10.0 mi West 10.4 mph 16.1 mph N/A   Clear
6:55 PM 57.2 °F - 21.2 °F 25% 29.77 in 10.0 mi WNW 11.5 mph - N/A   Clear
7:15 PM 55.4 °F - 21.2 °F 26% 29.78 in 10.0 mi NW 13.8 mph 19.6 mph N/A   Clear
7:35 PM 50.0 °F - 24.8 °F 37% 29.78 in 10.0 mi NW 8.1 mph - N/A   Clear
7:55 PM 46.4 °F 41.1 °F 26.6 °F 46% 29.78 in 10.0 mi NW 11.5 mph - N/A   Clear
8:15 PM 46.4 °F 41.1 °F 26.6 °F 46% 29.79 in 10.0 mi NW 11.5 mph - N/A   Clear
8:35 PM 46.4 °F 40.7 °F 28.4 °F 50% 29.80 in 10.0 mi NNW 12.7 mph - N/A   Clear
8:55 PM 42.8 °F 37.0 °F 28.4 °F 57% 29.81 in 10.0 mi NW 10.4 mph - N/A   Clear
9:15 PM 44.6 °F 38.1 °F 26.6 °F 49% 29.81 in 10.0 mi NW 13.8 mph - N/A   Clear
9:35 PM 44.6 °F 38.4 °F 26.6 °F 49% 29.82 in 10.0 mi WNW 12.7 mph - N/A   Clear
9:55 PM 44.6 °F 38.4 °F 26.6 °F 49% 29.82 in 10.0 mi WNW 12.7 mph - N/A   Clear
10:15 PM 46.4 °F 40.4 °F 26.6 °F 46% 29.82 in 10.0 mi WNW 13.8 mph - N/A   Clear
10:35 PM 48.2 °F - 24.8 °F 40% 29.84 in 10.0 mi NW 19.6 mph 24.2 mph N/A   Clear
10:55 PM 48.2 °F - 26.6 °F 43% 29.86 in 10.0 mi NW 18.4 mph 25.3 mph N/A   Clear
11:15 PM 46.4 °F 39.5 °F 28.4 °F 50% 29.87 in 10.0 mi NNW 17.3 mph - N/A   Clear
11:35 PM 44.6 °F 37.2 °F 28.4 °F 53% 29.88 in 10.0 mi NNW 17.3 mph - N/A   Clear
11:55 PM 44.6 °F 37.4 °F 30.2 °F 57% 29.89 in 10.0 mi NNW 16.1 mph - N/A   Clear